| time (UTC) | temp F | wind direction | speed MPH | gust MPH | rain 1hr in | rain 24hr in | rain mn in | humidity % | barometer mb |
| 20260510005700 | 62 | 164 | 2.0 | 3.0 | 0.00 | 0.00 | 0.00 | 58 | 965.9 |
| 20260510005200 | 63 | 147 | 1.0 | 2.0 | 0.00 | 0.00 | 0.00 | 56 | 965.8 |
| 20260510004700 | 64 | 148 | 2.0 | 3.0 | 0.00 | 0.00 | 0.00 | 55 | 965.7 |
| 20260510004200 | 64 | 140 | 1.0 | 2.0 | 0.00 | 0.00 | 0.00 | 54 | 965.6 |
| 20260510003200 | 65 | 133 | 1.0 | 2.0 | 0.00 | 0.00 | 0.00 | 54 | 965.4 |
| 20260510002700 | 66 | 165 | 1.0 | 2.0 | 0.00 | 0.00 | 0.00 | 52 | 965.3 |
| 20260510002200 | 67 | 121 | 1.0 | 2.0 | 0.00 | 0.00 | 0.00 | 50 | 965.2 |
| 20260510001659 | 67 | 129 | 1.0 | 2.0 | 0.00 | 0.00 | 0.00 | 49 | 965.1 |
| 20260510000700 | 68 | 121 | 1.0 | 1.0 | 0.00 | 0.00 | 0.00 | 49 | 965.0 |
| 20260510000200 | 69 | 118 | 0.0 | 1.0 | 0.00 | 0.00 | 0.00 | 47 | 965.1 |
| 20260509235200 | 70 | 24 | 0.0 | 1.0 | 0.00 | 0.00 | 0.00 | 52 | 965.0 |
| 20260509234700 | 71 | 122 | 0.0 | 1.0 | 0.00 | 0.00 | 0.00 | 52 | 965.0 |
| 20260509234200 | 71 | 325 | 0.0 | 2.0 | 0.00 | 0.00 | 0.00 | 52 | 965.0 |
| 20260509233701 | 72 | 67 | 0.0 | 3.0 | 0.00 | 0.00 | 0.00 | 48 | 964.9 |
| 20260509233200 | 72 | 94 | 3.0 | 5.0 | 0.00 | 0.00 | 0.00 | 47 | 964.9 |
| 20260509232700 | 73 | 144 | 2.0 | 3.0 | 0.00 | 0.00 | 0.00 | 47 | 964.9 |
| 20260509232200 | 75 | 129 | 1.0 | 2.0 | 0.00 | 0.00 | 0.00 | 46 | 964.9 |
| 20260509231700 | 75 | 9 | 1.0 | 2.0 | 0.00 | 0.00 | 0.00 | 44 | 964.8 |
| 20260509231200 | 75 | 159 | 1.0 | 3.0 | 0.00 | 0.00 | 0.00 | 43 | 964.7 |
| 20260509230700 | 75 | 31 | 1.0 | 3.0 | 0.00 | 0.00 | 0.00 | 45 | 964.6 |
| 20260509230200 | 74 | 36 | 1.0 | 3.0 | 0.00 | 0.00 | 0.00 | 44 | 964.6 |
| 20260509225200 | 74 | 57 | 1.0 | 5.0 | 0.00 | 0.00 | 0.00 | 44 | 964.5 |
| 20260509224200 | 72 | 34 | 1.0 | 2.0 | 0.00 | 0.00 | 0.00 | 47 | 964.6 |
| 20260509223700 | 73 | 118 | 2.0 | 5.0 | 0.00 | 0.00 | 0.00 | 46 | 964.6 |
| 20260509222700 | 74 | 65 | 1.0 | 2.0 | 0.00 | 0.00 | 0.00 | 45 | 964.7 |
| 20260509222200 | 73 | 359 | 1.0 | 5.0 | 0.00 | 0.00 | 0.00 | 44 | 964.6 |
| 20260509221700 | 73 | 23 | 2.0 | 3.0 | 0.00 | 0.00 | 0.00 | 44 | 964.5 |
| 20260509221159 | 73 | 243 | 1.0 | 2.0 | 0.00 | 0.00 | 0.00 | 44 | 964.6 |
| 20260509220700 | 73 | 356 | 1.0 | 5.0 | 0.00 | 0.00 | 0.00 | 44 | 964.5 |
| 20260509220200 | 72 | 52 | 1.0 | 2.0 | 0.00 | 0.00 | 0.00 | 44 | 964.5 |
| 20260509215701 | 72 | 297 | 1.0 | 3.0 | 0.00 | 0.00 | 0.00 | 42 | 964.5 |
| 20260509215200 | 73 | 62 | 1.0 | 2.0 | 0.00 | 0.00 | 0.00 | 44 | 964.5 |
| 20260509214700 | 73 | 8 | 1.0 | 3.0 | 0.00 | 0.00 | 0.00 | 46 | 964.5 |
| 20260509214200 | 73 | 20 | 1.0 | 2.0 | 0.00 | 0.00 | 0.00 | 44 | 964.5 |
| 20260509213700 | 73 | 348 | 1.0 | 3.0 | 0.00 | 0.00 | 0.00 | 42 | 964.4 |
| 20260509213200 | 73 | 88 | 1.0 | 6.0 | 0.00 | 0.00 | 0.00 | 41 | 964.4 |
| 20260509212700 | 73 | 86 | 2.0 | 5.0 | 0.00 | 0.00 | 0.00 | 43 | 964.3 |
| 20260509212159 | 73 | 9 | 1.0 | 2.0 | 0.00 | 0.00 | 0.00 | 42 | 964.3 |
| 20260509211700 | 72 | 77 | 1.0 | 3.0 | 0.00 | 0.00 | 0.00 | 41 | 964.2 |
| 20260509211202 | 72 | 37 | 1.0 | 3.0 | 0.00 | 0.00 | 0.00 | 42 | 964.2 |
| 20260509210700 | 72 | 76 | 1.0 | 3.0 | 0.00 | 0.00 | 0.00 | 44 | 964.2 |
| 20260509210200 | 72 | 72 | 1.0 | 5.0 | 0.00 | 0.00 | 0.00 | 44 | 964.2 |
| 20260509205700 | 72 | 72 | 1.0 | 3.0 | 0.00 | 0.00 | 0.00 | 44 | 964.1 |
| 20260509205201 | 72 | 93 | 2.0 | 3.0 | 0.00 | 0.00 | 0.00 | 44 | 964.1 |
| 20260509204700 | 72 | 114 | 2.0 | 3.0 | 0.00 | 0.00 | 0.00 | 45 | 964.1 |
| 20260509204200 | 72 | 111 | 2.0 | 5.0 | 0.00 | 0.00 | 0.00 | 45 | 964.1 |
| 20260509203700 | 73 | 94 | 2.0 | 5.0 | 0.00 | 0.00 | 0.00 | 44 | 964.1 |
| 20260509202700 | 74 | 78 | 2.0 | 6.0 | 0.00 | 0.00 | 0.00 | 42 | 964.1 |
| 20260509202200 | 74 | 99 | 3.0 | 5.0 | 0.00 | 0.00 | 0.00 | 42 | 964.0 |
| 20260509201700 | 75 | 87 | 3.0 | 8.0 | 0.00 | 0.00 | 0.00 | 42 | 964.0 |
| 20260509201200 | 76 | 113 | 2.0 | 6.0 | 0.00 | 0.00 | 0.00 | 40 | 963.9 |
| 20260509200200 | 75 | 56 | 2.0 | 5.0 | 0.00 | 0.00 | 0.00 | 40 | 963.9 |
| 20260509195700 | 75 | 4 | 1.0 | 8.0 | 0.00 | 0.00 | 0.00 | 39 | 963.9 |
| 20260509194700 | 74 | 101 | 2.0 | 6.0 | 0.00 | 0.00 | 0.00 | 42 | 964.1 |
| 20260509194200 | 74 | 55 | 3.0 | 6.0 | 0.00 | 0.00 | 0.00 | 40 | 964.3 |
| 20260509193200 | 73 | 89 | 2.0 | 5.0 | 0.00 | 0.00 | 0.00 | 40 | 964.3 |
| 20260509192701 | 73 | 74 | 3.0 | 6.0 | 0.00 | 0.00 | 0.00 | 42 | 964.3 |
| 20260509192200 | 73 | 63 | 2.0 | 5.0 | 0.00 | 0.00 | 0.00 | 42 | 964.5 |
| 20260509191700 | 74 | 71 | 2.0 | 6.0 | 0.00 | 0.00 | 0.00 | 42 | 964.5 |
| 20260509191200 | 74 | 87 | 2.0 | 3.0 | 0.00 | 0.00 | 0.00 | 41 | 964.5 |
| 20260509190700 | 74 | 11 | 1.0 | 6.0 | 0.00 | 0.00 | 0.00 | 40 | 964.6 |
| 20260509190200 | 74 | 90 | 2.0 | 3.0 | 0.00 | 0.00 | 0.00 | 41 | 964.7 |
| 20260509185701 | 73 | 34 | 2.0 | 7.0 | 0.00 | 0.00 | 0.00 | 44 | 964.6 |
| 20260509185201 | 73 | 79 | 2.0 | 7.0 | 0.00 | 0.00 | 0.00 | 42 | 964.6 |
| 20260509184700 | 72 | 158 | 3.0 | 8.0 | 0.00 | 0.00 | 0.00 | 42 | 964.8 |
| 20260509183701 | 73 | 35 | 2.0 | 6.0 | 0.00 | 0.00 | 0.00 | 42 | 964.9 |
| 20260509181700 | 72 | 101 | 2.0 | 8.0 | 0.00 | 0.00 | 0.00 | 43 | 965.0 |
| 20260509181200 | 71 | 116 | 2.0 | 6.0 | 0.00 | 0.00 | 0.00 | 45 | 965.0 |
| 20260509180659 | 70 | 79 | 1.0 | 7.0 | 0.00 | 0.00 | 0.00 | 47 | 965.2 |
| 20260509180200 | 70 | 104 | 3.0 | 6.0 | 0.00 | 0.00 | 0.00 | 49 | 965.3 |
| 20260509175700 | 70 | 119 | 4.0 | 6.0 | 0.00 | 0.00 | 0.00 | 48 | 965.4 |
| 20260509175159 | 70 | 108 | 2.0 | 3.0 | 0.00 | 0.00 | 0.00 | 48 | 965.4 |
| 20260509174659 | 69 | 111 | 3.0 | 6.0 | 0.00 | 0.00 | 0.00 | 48 | 965.7 |
| 20260509173200 | 68 | 98 | 2.0 | 3.0 | 0.00 | 0.00 | 0.00 | 51 | 965.7 |
| 20260509172700 | 68 | 355 | 1.0 | 3.0 | 0.00 | 0.00 | 0.00 | 50 | 965.8 |
| 20260509172200 | 68 | 84 | 1.0 | 5.0 | 0.00 | 0.00 | 0.00 | 50 | 965.7 |
| 20260509171701 | 68 | 116 | 3.0 | 5.0 | 0.00 | 0.00 | 0.00 | 50 | 965.8 |
| 20260509171200 | 68 | 89 | 2.0 | 2.0 | 0.00 | 0.00 | 0.00 | 51 | 966.0 |
| 20260509170700 | 68 | 136 | 0.0 | 1.0 | 0.00 | 0.00 | 0.00 | 49 | 966.1 |
| 20260509170200 | 68 | 39 | 1.0 | 1.0 | 0.00 | 0.00 | 0.00 | 50 | 966.1 |
| 20260509165700 | 68 | 343 | 1.0 | 2.0 | 0.00 | 0.00 | 0.00 | 50 | 966.2 |
| 20260509165200 | 68 | 48 | 1.0 | 2.0 | 0.00 | 0.00 | 0.00 | 50 | 966.3 |
| 20260509164700 | 68 | 74 | 1.0 | 3.0 | 0.00 | 0.00 | 0.00 | 50 | 966.3 |
| 20260509163659 | 69 | 141 | 2.0 | 6.0 | 0.00 | 0.00 | 0.00 | 48 | 966.2 |
| 20260509162200 | 69 | 49 | 1.0 | 3.0 | 0.00 | 0.00 | 0.00 | 48 | 965.9 |
| 20260509161700 | 68 | 29 | 2.0 | 6.0 | 0.00 | 0.00 | 0.00 | 50 | 966.0 |
| 20260509161200 | 68 | 61 | 1.0 | 3.0 | 0.00 | 0.00 | 0.00 | 51 | 966.1 |
| 20260509160700 | 68 | 98 | 2.0 | 5.0 | 0.00 | 0.00 | 0.00 | 50 | 966.0 |
| 20260509160201 | 68 | 78 | 2.0 | 3.0 | 0.00 | 0.00 | 0.00 | 50 | 966.0 |
| 20260509155200 | 67 | 78 | 2.0 | 3.0 | 0.00 | 0.00 | 0.00 | 51 | 966.1 |
| 20260509153200 | 67 | 105 | 1.0 | 5.0 | 0.00 | 0.00 | 0.00 | 50 | 966.0 |
| 20260509152700 | 68 | 108 | 3.0 | 5.0 | 0.00 | 0.00 | 0.00 | 51 | 965.9 |
| 20260509151700 | 67 | 32 | 1.0 | 3.0 | 0.00 | 0.00 | 0.00 | 51 | 965.9 |
| 20260509151159 | 67 | 106 | 3.0 | 5.0 | 0.00 | 0.00 | 0.00 | 49 | 966.0 |
| 20260509150701 | 67 | 47 | 1.0 | 2.0 | 0.00 | 0.00 | 0.00 | 49 | 966.0 |
| 20260509150200 | 67 | 101 | 2.0 | 3.0 | 0.00 | 0.00 | 0.00 | 50 | 966.1 |
| 20260509145700 | 67 | 76 | 1.0 | 3.0 | 0.00 | 0.00 | 0.00 | 51 | 966.1 |
| 20260509145201 | 67 | 126 | 2.0 | 3.0 | 0.00 | 0.00 | 0.00 | 51 | 966.1 |
| 20260509144700 | 67 | 352 | 1.0 | 3.0 | 0.00 | 0.00 | 0.00 | 52 | 966.1 |
| 20260509144200 | 67 | 80 | 2.0 | 5.0 | 0.00 | 0.00 | 0.00 | 52 | 966.0 |
| 20260509143201 | 66 | 118 | 2.0 | 5.0 | 0.00 | 0.00 | 0.00 | 52 | 965.8 |
| 20260509142700 | 65 | 160 | 3.0 | 6.0 | 0.00 | 0.00 | 0.00 | 53 | 965.9 |
| 20260509142200 | 65 | 152 | 5.0 | 6.0 | 0.00 | 0.00 | 0.00 | 53 | 966.0 |
| 20260509141201 | 63 | 243 | 2.0 | 5.0 | 0.00 | 0.00 | 0.00 | 56 | 966.3 |
| 20260509140700 | 63 | 122 | 3.0 | 6.0 | 0.00 | 0.00 | 0.00 | 56 | 966.4 |
| 20260509140200 | 62 | 79 | 1.0 | 3.0 | 0.00 | 0.00 | 0.00 | 57 | 966.6 |
| 20260509135200 | 62 | 313 | 1.0 | 3.0 | 0.00 | 0.00 | 0.00 | 56 | 966.7 |
| 20260509134700 | 62 | 124 | 1.0 | 5.0 | 0.00 | 0.00 | 0.00 | 56 | 966.7 |
| 20260509134200 | 62 | 170 | 2.0 | 5.0 | 0.00 | 0.00 | 0.00 | 56 | 966.9 |
| 20260509133700 | 61 | 108 | 1.0 | 3.0 | 0.00 | 0.00 | 0.00 | 57 | 966.9 |
| 20260509133201 | 61 | 138 | 1.0 | 3.0 | 0.00 | 0.00 | 0.00 | 56 | 966.9 |
| 20260509132700 | 61 | 108 | 2.0 | 6.0 | 0.00 | 0.00 | 0.00 | 56 | 967.0 |
| 20260509132200 | 61 | 92 | 1.0 | 3.0 | 0.00 | 0.00 | 0.00 | 56 | 967.0 |
| 20260509131700 | 60 | 115 | 1.0 | 5.0 | 0.00 | 0.00 | 0.00 | 56 | 967.0 |
| 20260509130200 | 60 | 280 | 1.0 | 3.0 | 0.00 | 0.00 | 0.00 | 56 | 966.7 |
| 20260509125700 | 60 | 171 | 1.0 | 3.0 | 0.00 | 0.00 | 0.00 | 57 | 966.8 |
| 20260509124700 | 59 | 131 | 1.0 | 3.0 | 0.00 | 0.00 | 0.00 | 56 | 966.7 |
| 20260509123700 | 59 | 175 | 1.0 | 6.0 | 0.00 | 0.00 | 0.00 | 58 | 966.7 |
| 20260509123200 | 59 | 188 | 2.0 | 6.0 | 0.00 | 0.00 | 0.00 | 57 | 966.7 |
| 20260509122700 | 58 | 72 | 1.0 | 3.0 | 0.00 | 0.00 | 0.00 | 58 | 966.8 |
| 20260509122200 | 58 | 130 | 1.0 | 3.0 | 0.00 | 0.00 | 0.00 | 59 | 966.8 |
| 20260509121701 | 58 | 186 | 1.0 | 3.0 | 0.00 | 0.00 | 0.00 | 58 | 966.9 |
| 20260509121200 | 58 | 273 | 1.0 | 2.0 | 0.00 | 0.00 | 0.00 | 58 | 966.9 |
| 20260509120200 | 58 | 167 | 2.0 | 3.0 | 0.00 | 0.00 | 0.00 | 58 | 966.9 |
| 20260509115700 | 58 | 120 | 1.0 | 2.0 | 0.00 | 0.00 | 0.00 | 58 | 966.9 |
| 20260509115200 | 57 | 128 | 1.0 | 2.0 | 0.00 | 0.00 | 0.00 | 58 | 966.9 |
| 20260509114700 | 57 | 168 | 1.0 | 3.0 | 0.00 | 0.00 | 0.00 | 57 | 966.9 |
| 20260509114201 | 57 | 114 | 1.0 | 2.0 | 0.00 | 0.00 | 0.00 | 59 | 966.9 |
| 20260509113701 | 57 | 86 | 1.0 | 3.0 | 0.00 | 0.00 | 0.00 | 60 | 966.9 |
| 20260509112700 | 57 | 115 | 1.0 | 2.0 | 0.00 | 0.00 | 0.00 | 61 | 966.9 |
| 20260509112200 | 56 | 135 | 1.0 | 2.0 | 0.00 | 0.00 | 0.00 | 60 | 966.9 |
| 20260509111700 | 56 | 128 | 1.0 | 2.0 | 0.00 | 0.00 | 0.00 | 59 | 966.9 |
| 20260509111159 | 56 | 150 | 1.0 | 2.0 | 0.00 | 0.00 | 0.00 | 58 | 966.8 |
| 20260509110200 | 56 | 148 | 2.0 | 3.0 | 0.00 | 0.00 | 0.00 | 61 | 966.8 |
| 20260509105659 | 56 | 147 | 1.0 | 2.0 | 0.00 | 0.00 | 0.00 | 60 | 966.9 |
| 20260509104700 | 56 | 156 | 1.0 | 2.0 | 0.00 | 0.00 | 0.00 | 61 | 966.9 |
| 20260509103700 | 56 | 113 | 1.0 | 2.0 | 0.00 | 0.00 | 0.00 | 60 | 966.8 |
| 20260509103200 | 56 | 157 | 1.0 | 2.0 | 0.00 | 0.00 | 0.00 | 59 | 966.9 |
| 20260509102700 | 55 | 141 | 1.0 | 2.0 | 0.00 | 0.00 | 0.00 | 55 | 966.9 |
| 20260509102200 | 55 | 193 | 1.0 | 2.0 | 0.00 | 0.00 | 0.00 | 59 | 966.9 |
| 20260509101700 | 55 | 166 | 1.0 | 2.0 | 0.00 | 0.00 | 0.00 | 60 | 966.9 |
| 20260509100700 | 55 | 165 | 2.0 | 3.0 | 0.00 | 0.00 | 0.00 | 60 | 966.9 |
| 20260509100200 | 55 | 167 | 1.0 | 3.0 | 0.00 | 0.00 | 0.00 | 60 | 966.9 |
| 20260509095700 | 55 | 146 | 2.0 | 3.0 | 0.00 | 0.00 | 0.00 | 58 | 967.0 |
| 20260509095201 | 55 | 115 | 1.0 | 2.0 | 0.00 | 0.00 | 0.00 | 60 | 967.0 |
| 20260509094700 | 55 | 149 | 2.0 | 2.0 | 0.00 | 0.00 | 0.00 | 59 | 966.9 |
| 20260509094200 | 55 | 152 | 1.0 | 2.0 | 0.00 | 0.00 | 0.00 | 58 | 966.9 |
| 20260509093201 | 55 | 157 | 2.0 | 3.0 | 0.00 | 0.00 | 0.00 | 58 | 967.0 |
| 20260509092700 | 55 | 164 | 2.0 | 3.0 | 0.00 | 0.00 | 0.00 | 57 | 967.1 |
| 20260509092200 | 55 | 157 | 2.0 | 3.0 | 0.00 | 0.00 | 0.00 | 57 | 967.2 |
| 20260509091700 | 55 | 159 | 2.0 | 3.0 | 0.00 | 0.00 | 0.00 | 57 | 967.3 |
| 20260509091200 | 55 | 158 | 2.0 | 3.0 | 0.00 | 0.00 | 0.00 | 56 | 967.3 |
| 20260509090701 | 55 | 157 | 2.0 | 3.0 | 0.00 | 0.00 | 0.00 | 56 | 967.3 |
| 20260509085700 | 55 | 139 | 1.0 | 2.0 | 0.00 | 0.00 | 0.00 | 56 | 967.2 |
| 20260509085200 | 56 | 159 | 1.0 | 2.0 | 0.00 | 0.00 | 0.00 | 55 | 967.3 |
| 20260509084700 | 56 | 192 | 1.0 | 2.0 | 0.00 | 0.00 | 0.00 | 56 | 967.3 |
| 20260509084200 | 56 | 197 | 1.0 | 2.0 | 0.00 | 0.00 | 0.00 | 54 | 967.3 |
| 20260509083700 | 56 | 159 | 1.0 | 2.0 | 0.00 | 0.00 | 0.00 | 56 | 967.3 |
| 20260509083200 | 56 | 122 | 1.0 | 2.0 | 0.00 | 0.00 | 0.00 | 55 | 967.3 |
| 20260509082700 | 56 | 180 | 1.0 | 2.0 | 0.00 | 0.00 | 0.00 | 54 | 967.3 |
| 20260509082200 | 56 | 164 | 1.0 | 2.0 | 0.00 | 0.00 | 0.00 | 54 | 967.4 |
| 20260509081200 | 57 | 176 | 1.0 | 2.0 | 0.00 | 0.00 | 0.00 | 55 | 967.4 |
| 20260509080701 | 57 | 153 | 1.0 | 3.0 | 0.00 | 0.00 | 0.00 | 52 | 967.4 |
| 20260509080200 | 57 | 87 | 1.0 | 3.0 | 0.00 | 0.00 | 0.00 | 51 | 967.4 |
| 20260509075700 | 57 | 155 | 1.0 | 2.0 | 0.00 | 0.00 | 0.00 | 50 | 967.4 |
| 20260509075200 | 57 | 162 | 1.0 | 2.0 | 0.00 | 0.00 | 0.00 | 52 | 967.4 |
| 20260509074700 | 57 | 160 | 1.0 | 3.0 | 0.00 | 0.00 | 0.00 | 49 | 967.5 |
| 20260509073700 | 57 | 80 | 1.0 | 5.0 | 0.00 | 0.00 | 0.00 | 51 | 967.6 |
| 20260509073201 | 57 | 210 | 1.0 | 3.0 | 0.00 | 0.00 | 0.00 | 51 | 967.6 |
| 20260509072700 | 57 | 108 | 1.0 | 2.0 | 0.00 | 0.00 | 0.00 | 51 | 967.7 |
| 20260509072200 | 57 | 131 | 1.0 | 2.0 | 0.00 | 0.00 | 0.00 | 52 | 967.7 |
| 20260509071700 | 57 | 92 | 1.0 | 2.0 | 0.00 | 0.00 | 0.00 | 51 | 967.7 |
| 20260509071201 | 57 | 250 | 1.0 | 2.0 | 0.00 | 0.00 | 0.00 | 50 | 967.7 |
| 20260509070700 | 57 | 156 | 1.0 | 2.0 | 0.00 | 0.00 | 0.00 | 51 | 967.6 |
| 20260509070201 | 57 | 120 | 1.0 | 3.0 | 0.00 | 0.00 | 0.00 | 50 | 967.7 |
| 20260509065700 | 57 | 166 | 1.0 | 6.0 | 0.00 | 0.00 | 0.00 | 50 | 967.7 |
| 20260509065200 | 57 | 224 | 1.0 | 3.0 | 0.00 | 0.00 | 0.00 | 53 | 967.7 |
| 20260509064701 | 57 | 112 | 1.0 | 3.0 | 0.00 | 0.00 | 0.00 | 51 | 967.7 |
| 20260509064200 | 57 | 293 | 1.0 | 3.0 | 0.00 | 0.00 | 0.00 | 51 | 967.7 |
| 20260509062700 | 56 | 107 | 1.0 | 3.0 | 0.00 | 0.00 | 0.00 | 54 | 967.9 |
| 20260509062200 | 56 | 150 | 1.0 | 2.0 | 0.00 | 0.00 | 0.00 | 57 | 968.0 |
| 20260509061701 | 56 | 136 | 1.0 | 2.0 | 0.00 | 0.00 | 0.00 | 54 | 968.0 |
| 20260509060700 | 55 | 177 | 1.0 | 3.0 | 0.00 | 0.00 | 0.00 | 56 | 968.1 |
| 20260509060200 | 54 | 113 | 1.0 | 2.0 | 0.00 | 0.00 | 0.00 | 56 | 968.2 |
| 20260509055700 | 54 | 150 | 1.0 | 2.0 | 0.00 | 0.00 | 0.00 | 58 | 968.2 |
| 20260509055201 | 54 | 134 | 2.0 | 3.0 | 0.00 | 0.00 | 0.00 | 58 | 968.3 |
| 20260509054700 | 53 | 157 | 2.0 | 3.0 | 0.00 | 0.00 | 0.00 | 58 | 968.3 |
| 20260509054159 | 53 | 159 | 2.0 | 3.0 | 0.00 | 0.00 | 0.00 | 59 | 968.4 |
| 20260509053700 | 53 | 151 | 2.0 | 2.0 | 0.00 | 0.00 | 0.00 | 59 | 968.4 |
| 20260509053200 | 53 | 161 | 2.0 | 2.0 | 0.00 | 0.00 | 0.00 | 60 | 968.4 |
| 20260509052700 | 53 | 160 | 2.0 | 2.0 | 0.00 | 0.00 | 0.00 | 59 | 968.4 |
| 20260509051700 | 54 | 154 | 2.0 | 3.0 | 0.00 | 0.00 | 0.00 | 58 | 968.5 |
| 20260509051200 | 54 | 163 | 2.0 | 3.0 | 0.00 | 0.00 | 0.00 | 58 | 968.6 |
| 20260509050701 | 54 | 146 | 2.0 | 3.0 | 0.00 | 0.00 | 0.00 | 57 | 968.6 |
| 20260509045700 | 54 | 171 | 1.0 | 2.0 | 0.00 | 0.00 | 0.00 | 58 | 968.6 |
| 20260509045200 | 54 | 99 | 1.0 | 2.0 | 0.00 | 0.00 | 0.00 | 57 | 968.5 |
| 20260509044701 | 54 | 169 | 1.0 | 2.0 | 0.00 | 0.00 | 0.00 | 57 | 968.4 |
| 20260509044200 | 55 | 167 | 1.0 | 2.0 | 0.00 | 0.00 | 0.00 | 58 | 968.4 |
| 20260509043700 | 55 | 130 | 1.0 | 2.0 | 0.00 | 0.00 | 0.00 | 56 | 968.4 |
| 20260509043201 | 54 | 132 | 1.0 | 3.0 | 0.00 | 0.00 | 0.00 | 56 | 968.4 |
| 20260509042701 | 55 | 138 | 1.0 | 2.0 | 0.00 | 0.00 | 0.00 | 58 | 968.4 |
| 20260509042200 | 55 | 190 | 1.0 | 2.0 | 0.00 | 0.00 | 0.00 | 56 | 968.3 |
| 20260509041700 | 55 | 140 | 1.0 | 2.0 | 0.00 | 0.00 | 0.00 | 55 | 968.3 |
| 20260509041200 | 55 | 156 | 2.0 | 3.0 | 0.00 | 0.00 | 0.00 | 55 | 968.3 |
| 20260509040700 | 56 | 174 | 2.0 | 3.0 | 0.00 | 0.00 | 0.00 | 57 | 968.3 |
| 20260509040200 | 56 | 172 | 1.0 | 3.0 | 0.00 | 0.00 | 0.00 | 55 | 968.4 |
| 20260509035701 | 56 | 151 | 1.0 | 3.0 | 0.00 | 0.01 | 0.00 | 54 | 968.3 |
| 20260509035200 | 56 | 176 | 2.0 | 3.0 | 0.00 | 0.01 | 0.00 | 56 | 968.3 |
| 20260509034700 | 56 | 210 | 1.0 | 2.0 | 0.00 | 0.01 | 0.00 | 54 | 968.4 |
| 20260509034200 | 56 | 125 | 1.0 | 2.0 | 0.00 | 0.01 | 0.00 | 54 | 968.4 |
| 20260509033700 | 56 | 133 | 1.0 | 3.0 | 0.00 | 0.01 | 0.00 | 55 | 968.4 |
| 20260509033200 | 56 | 174 | 1.0 | 5.0 | 0.00 | 0.01 | 0.00 | 55 | 968.3 |
| 20260509032700 | 56 | 124 | 1.0 | 2.0 | 0.00 | 0.01 | 0.00 | 54 | 968.3 |
| 20260509032200 | 56 | 135 | 1.0 | 3.0 | 0.00 | 0.01 | 0.00 | 54 | 968.4 |
| 20260509031700 | 55 | 97 | 1.0 | 3.0 | 0.00 | 0.01 | 0.00 | 56 | 968.4 |
| 20260509030700 | 55 | 150 | 1.0 | 2.0 | 0.00 | 0.01 | 0.00 | 56 | 968.4 |
| 20260509030200 | 55 | 161 | 2.0 | 3.0 | 0.00 | 0.01 | 0.00 | 56 | 968.4 |
| 20260509025700 | 56 | 161 | 2.0 | 2.0 | 0.00 | 0.01 | 0.00 | 56 | 968.5 |
| 20260509025200 | 56 | 157 | 2.0 | 2.0 | 0.00 | 0.01 | 0.00 | 56 | 968.6 |
| 20260509024701 | 56 | 150 | 2.0 | 3.0 | 0.00 | 0.01 | 0.00 | 55 | 968.6 |
| 20260509024200 | 56 | 182 | 2.0 | 3.0 | 0.00 | 0.01 | 0.00 | 55 | 968.6 |
| 20260509023700 | 57 | 151 | 2.0 | 3.0 | 0.00 | 0.01 | 0.00 | 55 | 968.6 |
| 20260509023200 | 57 | 172 | 1.0 | 3.0 | 0.00 | 0.01 | 0.00 | 54 | 968.6 |
| 20260509022700 | 58 | 169 | 2.0 | 3.0 | 0.00 | 0.01 | 0.00 | 54 | 968.6 |
| 20260509022200 | 58 | 165 | 1.0 | 3.0 | 0.00 | 0.01 | 0.00 | 54 | 968.7 |
| 20260509021701 | 58 | 172 | 1.0 | 2.0 | 0.00 | 0.01 | 0.00 | 51 | 968.6 |
| 20260509021200 | 59 | 138 | 1.0 | 3.0 | 0.00 | 0.01 | 0.00 | 50 | 968.5 |
| 20260509020701 | 59 | 170 | 1.0 | 3.0 | 0.00 | 0.01 | 0.00 | 51 | 968.5 |
| 20260509020200 | 59 | 145 | 1.0 | 2.0 | 0.00 | 0.01 | 0.00 | 51 | 968.3 |
| 20260509015702 | 59 | 172 | 1.0 | 2.0 | 0.00 | 0.01 | 0.00 | 51 | 968.3 |
| 20260509015200 | 60 | 135 | 1.0 | 2.0 | 0.00 | 0.01 | 0.00 | 49 | 968.2 |
| 20260509014700 | 60 | 136 | 1.0 | 3.0 | 0.00 | 0.01 | 0.00 | 49 | 968.3 |
| 20260509014201 | 60 | 32 | 1.0 | 2.0 | 0.00 | 0.01 | 0.00 | 48 | 968.2 |
| 20260509013700 | 60 | 168 | 1.0 | 3.0 | 0.00 | 0.01 | 0.00 | 49 | 968.1 |
| 20260509013200 | 60 | 112 | 1.0 | 2.0 | 0.00 | 0.01 | 0.00 | 50 | 968.1 |
| 20260509012700 | 60 | 58 | 1.0 | 3.0 | 0.00 | 0.01 | 0.00 | 52 | 968.0 |
| 20260509012200 | 60 | 147 | 1.0 | 3.0 | 0.00 | 0.01 | 0.00 | 52 | 968.1 |
| 20260509011702 | 60 | 209 | 1.0 | 2.0 | 0.00 | 0.01 | 0.00 | 48 | 968.0 |
| 20260509011200 | 60 | 204 | 1.0 | 2.0 | 0.00 | 0.01 | 0.00 | 49 | 968.0 |
| 20260509010700 | 60 | 216 | 1.0 | 3.0 | 0.00 | 0.01 | 0.00 | 49 | 967.9 |